This is the latest recevied weather packets stored in our database for station/object K1BES. If no packets are shown the sender has not sent any weather packets the latest 10 day(s).
| Time | Temp. | Humidity | Pressure | Rain* | Wind** | Luminosity | Snow |
|---|---|---|---|---|---|---|---|
| 1777590726 | 25.56° C | 83% | 1013.4 hPa | 0 mm | - | 48 W/m² | - |
| 1777590422 | 26.11° C | 82% | 1013.2 hPa | 0 mm | - | 57 W/m² | - |
| 1777590119 | 26.11° C | 82% | 1013.5 hPa | 0 mm | - | 69 W/m² | - |
| 1777589815 | 26.11° C | 82% | 1013.3 hPa | 0 mm | - | 78 W/m² | - |
| 1777589515 | 26.11° C | 82% | 1013.6 hPa | 0 mm | - | 82 W/m² | - |
| 1777589215 | 26.11° C | 82% | 1013.4 hPa | 0 mm | - | 83 W/m² | - |
| 1777588911 | 26.11° C | 82% | 1013.6 hPa | 0 mm | - | 79 W/m² | - |
| 1777588607 | 26.11° C | 81% | 1013.6 hPa | 0 mm | - | 70 W/m² | - |
| 1777588303 | 26.11° C | 82% | 1013.6 hPa | 0 mm | - | 66 W/m² | - |
| 1777587999 | 26.11° C | 81% | 1013.6 hPa | 0 mm | - | 69 W/m² | - |
| 1777587695 | 26.11° C | 81% | 1013.5 hPa | 0 mm | - | 73 W/m² | - |
| 1777587395 | 26.67° C | 80% | 1013.5 hPa | 0 mm | - | 75 W/m² | - |
| 1777587091 | 26.67° C | 79% | 1013.6 hPa | 0 mm | - | 81 W/m² | - |
| 1777586787 | 26.67° C | 80% | 1013.8 hPa | 0 mm | - | 85 W/m² | - |
| 1777586482 | 26.67° C | 79% | 1013.8 hPa | 0 mm | - | 79 W/m² | - |
| 1777586178 | 26.67° C | 79% | 1013.8 hPa | 0 mm | - | 101 W/m² | - |
| 1777585876 | 26.67° C | 79% | 1013.8 hPa | 0 mm | - | 71 W/m² | - |
| 1777585571 | 26.67° C | 79% | 1013.7 hPa | 0 mm | - | 68 W/m² | - |
| 1777585267 | 27.22° C | 77% | 1013.7 hPa | 0 mm | - | 67 W/m² | - |
| 1777584961 | 27.22° C | 77% | 1013.8 hPa | 0 mm | - | 69 W/m² | - |
| 1777584658 | 27.22° C | 77% | 1013.8 hPa | 0 mm | - | 70 W/m² | - |
| 1777584356 | 27.22° C | 77% | 1013.7 hPa | 0 mm | - | 72 W/m² | - |
| 1777584052 | 27.78° C | 77% | 1013.7 hPa | 0 mm | - | 112 W/m² | - |
| 1777583746 | 27.78° C | 75% | 1013.7 hPa | 0 mm | - | 459 W/m² | - |
| 1777583445 | 27.78° C | 74% | 1013.7 hPa | 0 mm | - | 490 W/m² | - |
* Rain latest hour (hover to see other rain measurements)
** Current wind speed in m/s (hover to see current wind gust speed)